Home > Weather > Kotka > Past weeks

Flag for Finland Past Weather in Kotka, Finland — Yesterday and Last 2 Weeks

Now
52 °F

Drizzle. Low clouds.


Feels Like: 49 °F
Forecast: 51 / 64 °F
Wind: 9 mph from North

Location: Utti

Current Time: Aug 30, 2016 at 10:27:31 AM

Latest Report: Aug 30, 2016 at 9:50 AM


Visibility: N/A

Pressure: 29.65 "Hg

Humidity: 94%

Dew Point: 50 °F

Location of KotkaLocation

Past Weather in Kotka — Graph

°F

Kotka Temperature Yesterday

Maximum temperature yesterday: 59 °F (at 11:50 AM)
Minimum temperature yesterday: 50 °F (at 2:50 AM)
Average temperature yesterday: 53 °F

High & Low Weather Summary for the Past Weeks

 TemperatureHumidityPressure
High73 °F (Aug 20, 3:20 PM)100% (Aug 16, 1:20 AM)30.21 "Hg (Aug 16, 1:20 AM)
Low46 °F (Aug 25, 2:20 AM)42% (Aug 28, 2:50 PM)29.59 "Hg (Aug 16, 9:50 AM)
Average60 °F81%29.95 "Hg
* Reported Aug 15 9:20 AM — Aug 30 9:20 AM, Kotka, Weather by CustomWeather, © 2016

Note: Actual official high and low records may vary slightly from our data, if they occured in-between our weather recording intervals... More about our weather records

Advertising

Kotka Weather History for the Previous 24 Hours

Scroll right to see more
 ConditionsComfort  
Time TempWeatherWind HumidityBarometerVisibility
9:20 AM
Tue, Aug 30
50 °FLow clouds.9 mph100%29.65 "HgN/A
8:50 AM52 °FLow clouds.8 mph94%29.65 "HgN/A
8:20 AM52 °FLow clouds.7 mph94%29.65 "HgN/A
7:50 AM52 °FDrizzle. Low clouds.7 mph94%29.62 "HgN/A
7:20 AM52 °FDrizzle. Low clouds.7 mph94%29.62 "HgN/A
6:50 AM52 °FDrizzle. Low clouds.8 mph94%29.62 "HgN/A
6:20 AM52 °FDrizzle. Low clouds.7 mph94%29.62 "HgN/A
5:50 AM52 °FDrizzle. Low clouds.10 mph94%29.62 "HgN/A
5:20 AM52 °FLow clouds.9 mph94%29.62 "Hg6 mi
4:50 AM52 °FLow clouds.8 mph94%29.62 "Hg6 mi
4:20 AM52 °FLow clouds.9 mph94%29.59 "HgN/A
3:50 AM52 °FLow clouds.8 mph94%29.59 "HgN/A
3:20 AM52 °FLow clouds.8 mph100%29.59 "Hg4 mi
2:50 AM52 °FDrizzle. Low clouds.9 mph100%29.59 "Hg4 mi
2:20 AM52 °FLight rain. Low clouds.7 mph100%29.59 "Hg4 mi
1:50 AM52 °FDrizzle. Low clouds.8 mph100%29.62 "Hg5 mi
1:20 AM52 °FLow clouds.9 mph100%29.62 "HgN/A
12:50 AM52 °FLow clouds.9 mph94%29.62 "HgN/A
12:20 AM52 °FLow clouds.9 mph94%29.62 "HgN/A
11:50 PM
Mon, Aug 29
52 °FLow clouds.12 mph94%29.62 "Hg4 mi
11:20 PM52 °FLight rain. Low clouds.10 mph94%29.62 "Hg4 mi
10:50 PM52 °FLight rain. Fog.12 mph94%29.65 "Hg2 mi
10:20 PM52 °FLight rain. Low clouds.13 mph94%29.65 "Hg3 mi
9:50 PM52 °FRain. Low clouds.12 mph94%29.65 "Hg5 mi
9:20 PM52 °FLight rain. Low clouds.12 mph94%29.65 "HgN/A
8:50 PM52 °FSprinkles. Low clouds.12 mph94%29.65 "HgN/A
8:20 PM52 °FLow clouds.12 mph94%29.68 "HgN/A
7:50 PM52 °FLight rain. Low clouds.13 mph94%29.68 "HgN/A
7:20 PM52 °FLight rain. Low clouds.14 mph94%29.68 "HgN/A
6:50 PM52 °FLight rain. Low clouds.14 mph94%29.71 "Hg4 mi
6:20 PM52 °FLight rain. Low clouds.13 mph94%29.71 "Hg4 mi
5:50 PM52 °FLight rain. Overcast.16 mph94%29.71 "Hg4 mi
5:20 PM52 °FLight rain. Overcast.14 mph94%29.74 "HgN/A
4:50 PM52 °FLight rain. Overcast.15 mph94%29.74 "HgN/A
4:20 PM54 °FLight rain. Overcast.13 mph88%29.74 "HgN/A
3:50 PM54 °FLight rain. More clouds than sun.12 mph88%29.77 "HgN/A
3:20 PM55 °FLight rain. More clouds than sun.14 mph82%29.80 "HgN/A
2:50 PM57 °FBroken clouds.14 mph72%29.80 "HgN/A
2:20 PM57 °FPartly sunny.15 mph72%29.80 "HgN/A
1:50 PM59 °FPartly sunny.15 mph72%29.80 "HgN/A
1:20 PM57 °FPartly sunny.12 mph77%29.83 "HgN/A
12:50 PM59 °FPartly sunny.12 mph72%29.83 "HgN/A
12:20 PM59 °FBroken clouds.13 mph68%29.86 "HgN/A
11:50 AM59 °FPartly sunny.9 mph77%29.86 "HgN/A
11:20 AM57 °FPartly sunny.10 mph82%29.89 "HgN/A
10:50 AM57 °FPartly sunny.8 mph82%29.89 "HgN/A
10:20 AM57 °FPartly sunny.9 mph82%29.92 "HgN/A
Weather by CustomWeather, © 2016

See weather overviewHow to use our weather pages